White Plains, CT

10:38 AM EDT on October 15, 2019 (GMT -0400)
Westchester County

Weather History for KHPN - August, 2019

Change the Weather History Date:

Sunday, August 18, 2019

  Actual Average Record
Temperature  
Mean Temperature 78 °F -  
Max Temperature 88 °F 78 °F 91 °F (2002)
Min Temperature 69 °F 61 °F 52 °F (1979)
Cooling Degree Days 14    
Growing Degree Days 28 (Base 50)    
Moisture  
Dew Point 70 °F    
Average Humidity 84    
Maximum Humidity 97    
Minimum Humidity 59    
Precipitation  
Precipitation 0.05 in - - ()
Sea Level Pressure  
Sea Level Pressure 30.00 in    
Wind  
Wind Speed 5 mph (South)    
Max Wind Speed 23 mph    
Max Gust Speed 32 mph    
Visibility 7 miles    
Events Fog , Rain , Thunderstorm    
Averages and records for this station are not official NWS values.
T = Trace of Precipitation, MM = Missing Value Source: NWS Daily Summary

Daily Weather History Graph

Daily Weather History Graph

Search for Another Location

Airport or City:

Astronomy

Aug. 18, 2019 Rise Set
Actual Time 6:07 AM EDT 7:49 PM EDT
Civil Twilight 5:37 AM EDT 8:18 PM EDT
Nautical Twilight 5:02 AM EDT 8:54 PM EDT
Astronomical Twilight 4:24 AM EDT 9:31 PM EDT
Moon 9:41 PM EDT (8/18) 8:50 AM EDT (8/18)
Length of Visible Light 14h 40m
Length of Day
13h 42m
Waning Gibbous, 91% of the Moon is Illuminated
Aug 18
Waning Gibbous
Aug 23
Last Quarter
Aug 30
New
Sep 5
First Quarter
Sep 14
Full

Hourly Weather History & Observations

Time (EDT) Temp. Heat Index Dew Point Humidity Pressure Visibility Wind Dir Wind Speed Gust Speed Precip Events Conditions
12:28 AM 73.9 °F - 72.0 °F 93% 30.01 in 3.0 mi ENE 4.6 mph - 0.00 in Rain , Thunderstorm Light Thunderstorms and Rain
12:56 AM 73.0 °F - 71.1 °F 93% 29.98 in 3.0 mi East 6.9 mph - 0.04 in Rain , Thunderstorm Light Thunderstorms and Rain
1:56 AM 72.0 °F - 71.1 °F 97% 29.98 in 6.0 mi East 3.5 mph - 0.00 in   Mostly Cloudy
2:56 AM 71.1 °F - 70.0 °F 96% 29.99 in 10.0 mi East 3.5 mph - 0.01 in   Overcast
3:56 AM 70.0 °F - 69.1 °F 97% 29.99 in 10.0 mi Calm Calm - N/A   Scattered Clouds
4:56 AM 70.0 °F - 69.1 °F 97% 29.98 in 10.0 mi Calm Calm - N/A   Mostly Cloudy
5:56 AM 70.0 °F - 69.1 °F 97% 29.99 in 6.0 mi NNW 4.6 mph - 0.00 in Rain Light Rain
6:56 AM 70.0 °F - 69.1 °F 97% 30.01 in 6.0 mi Calm Calm - 0.00 in   Scattered Clouds
7:16 AM 70.0 °F - 69.1 °F 97% 30.03 in 6.0 mi Calm Calm - N/A   Mostly Cloudy
7:56 AM 73.0 °F - 70.0 °F 90% 30.03 in 6.0 mi Calm Calm - N/A   Mostly Cloudy
8:56 AM 73.9 °F - 72.0 °F 93% 30.02 in 6.0 mi Calm Calm - N/A   Overcast
9:49 AM 73.9 °F - 73.0 °F 97% 30.04 in 0.5 mi South 5.8 mph - N/A Fog Fog
9:56 AM 73.9 °F - 73.0 °F 97% 30.02 in 0.5 mi SSE 5.8 mph - N/A Fog Fog
10:56 AM 77.0 °F - 73.9 °F 90% 30.02 in 1.5 mi West 3.5 mph - N/A   Overcast
11:56 AM 81.0 °F 86.7 °F 75.0 °F 82% 30.00 in 6.0 mi Calm Calm - N/A   Haze
12:56 PM 84.9 °F 93.3 °F 75.0 °F 72% 30.00 in 6.0 mi SSE 6.9 mph - N/A   Haze
1:56 PM 84.9 °F 93.3 °F 75.0 °F 72% 29.99 in 6.0 mi South 5.8 mph - N/A   Haze
2:56 PM 87.1 °F 95.4 °F 73.9 °F 65% 29.98 in 10.0 mi SSE 9.2 mph 19.6 mph N/A   Scattered Clouds
3:56 PM 87.1 °F 92.8 °F 71.1 °F 59% 29.96 in 10.0 mi South 9.2 mph - 0.00 in   Mostly Cloudy
4:56 PM 86.0 °F 92.2 °F 72.0 °F 63% 29.96 in 10.0 mi South 12.7 mph - 0.00 in   Mostly Cloudy
5:56 PM 82.0 °F 87.4 °F 73.0 °F 74% 29.96 in 10.0 mi South 9.2 mph - N/A   Clear
6:56 PM 79.0 °F - 73.9 °F 84% 29.96 in 10.0 mi South 5.8 mph - N/A   Clear
7:56 PM 78.1 °F - 71.1 °F 79% 29.99 in 6.0 mi South 4.6 mph - 0.00 in Thunderstorm Mostly Cloudy
8:26 PM 75.0 °F - 64.9 °F 71% 30.02 in 6.0 mi NW 23.0 mph 32.2 mph 0.00 in Rain , Thunderstorm Light Thunderstorms and Rain
8:44 PM 72.0 °F - 64.0 °F 76% 30.02 in 6.0 mi NW 10.4 mph - 0.00 in Rain , Thunderstorm Light Thunderstorms and Rain
8:56 PM 72.0 °F - 64.9 °F 78% 30.00 in 6.0 mi NNW 11.5 mph - 0.00 in Rain , Thunderstorm Light Thunderstorms and Rain
9:03 PM 71.1 °F - 66.0 °F 84% 30.01 in 10.0 mi NNW 9.2 mph - 0.00 in Rain , Thunderstorm Light Thunderstorms and Rain
9:56 PM 71.1 °F - 66.0 °F 84% 29.99 in 10.0 mi NNW 9.2 mph - 0.00 in Rain , Thunderstorm Light Thunderstorms and Rain
10:11 PM 71.1 °F - 64.0 °F 78% 30.00 in 10.0 mi NW 6.9 mph - 0.00 in   Clear
10:56 PM 71.1 °F - 64.0 °F 78% 29.98 in 10.0 mi Calm Calm - 0.00 in   Clear
11:56 PM 69.1 °F - 64.0 °F 84% 29.96 in 10.0 mi SW 5.8 mph - N/A   Clear